Date,TemperatureHighF,TemperatureAvgF,TemperatureLowF,DewpointHighF,DewpointAvgF,DewpointLowF,HumidityHigh,HumidityAvg,HumidityLow,PressureMaxIn,PressureMinIn,WindSpeedMaxMPH,WindSpeedAvgMPH,GustSpeedMaxMPH,PrecipitationSumIn
2013-1-1,106.7,87.4,68.9,65.9,53.2,42.3,74,38,15,29.32,28.97,18,3,18,0.00
2013-1-2,89.8,75.7,68.0,62.8,57.0,48.6,67,53,37,29.50,29.12,12,2,12,0.00
2013-1-3,86.9,73.8,67.3,60.4,56.8,55.1,68,56,39,29.53,29.35,11,3,11,0.00
2013-1-4,97.7,78.8,62.1,63.3,56.5,49.1,80,51,20,29.50,29.18,15,3,15,0.00
2013-1-5,102.9,83.2,64.8,64.8,57.5,49.2,75,47,18,29.44,29.26,12,2,12,0.00
2013-1-6,98.4,80.5,66.9,66.9,60.1,56.8,77,53,27,29.59,29.35,14,3,14,0.00
2013-1-7,96.1,80.7,70.5,66.6,61.1,57.6,73,53,29,29.62,29.32,14,3,14,0.00
2013-1-8,107.8,88.8,66.7,62.4,52.9,41.9,78,37,14,29.32,28.73,20,5,20,0.00
2013-1-9,93.9,83.1,69.4,60.4,51.9,41.9,58,36,20,29.12,28.64,25,5,25,0.00
2013-1-10,77.5,72.7,68.9,58.4,56.6,53.2,67,57,51,29.26,29.12,12,3,12,0.00
2013-1-11,105.8,85.0,65.8,66.3,59.9,47.2,77,49,15,29.26,28.88,12,3,12,0.00
2013-1-12,111.2,87.9,72.1,68.6,60.1,46.2,74,46,13,29.26,28.97,23,3,23,0.13
2013-1-13,92.3,77.5,69.6,67.9,63.6,59.5,77,64,42,29.32,29.00,10,2,10,0.04
2013-1-14,78.1,70.3,64.2,63.0,55.3,45.1,81,61,36,29.56,29.26,12,2,12,0.04
2013-1-15,87.6,72.7,62.6,60.1,55.1,51.1,76,56,31,29.56,29.32,15,4,15,0.00
2013-1-16,100.8,79.6,61.9,65.1,58.1,54.4,80,52,25,29.44,29.12,16,2,16,0.00
2013-1-17,102.9,84.6,71.4,67.8,63.2,55.8,73,52,26,29.35,28.94,13,3,13,0.00
2013-1-18,114.8,92.2,72.5,72.6,59.8,47.8,76,42,13,29.09,28.70,16,3,16,0.00
2013-1-19,81.3,74.4,68.5,61.2,58.2,55.5,77,58,43,29.44,29.09,8,2,9,0.08
2013-1-20,71.8,69.3,67.8,67.7,63.8,59.4,90,83,74,29.50,29.35,6,1,6,0.37
2013-1-21,82.2,74.4,68.4,71.5,65.8,63.4,91,76,58,29.44,29.24,14,2,14,0.04
2013-1-22,98.1,78.5,68.5,71.4,65.1,60.2,88,67,31,29.29,29.03,13,2,13,0.46
2013-1-23,79.7,72.6,67.8,69.2,64.0,60.6,87,75,64,29.47,29.26,7,1,7,0.00
2013-1-24,84.0,74.4,68.7,71.1,64.6,60.7,80,72,57,29.47,29.29,9,2,9,0.00
2013-1-25,94.3,80.0,69.3,71.3,66.6,63.0,88,66,39,29.35,29.12,14,3,14,0.00
2013-1-26,95.9,80.5,70.3,71.1,66.1,61.3,85,64,35,29.32,29.12,22,6,22,0.00
2013-1-27,75.2,73.0,70.3,70.2,67.9,66.3,92,84,76,29.24,29.12,13,2,13,2.84
2013-1-28,70.7,69.7,67.8,68.6,67.8,66.5,96,94,91,29.20,29.03,23,7,23,4.93
2013-1-29,85.1,74.5,68.4,74.3,68.0,61.6,96,81,58,29.26,28.94,10,2,10,1.43
2013-1-30,83.8,73.3,68.2,70.3,65.3,62.6,89,77,59,29.41,29.26,10,2,10,0.00
2013-1-31,94.8,80.6,71.4,71.5,66.6,58.8,84,65,33,29.38,29.03,12,2,12,0.00
2013-2-1,90.5,73.5,65.3,74.1,65.5,59.8,87,77,46,29.15,28.97,15,2,15,0.99
2013-2-2,69.6,63.6,59.5,60.7,56.8,51.8,86,79,65,29.38,29.15,10,2,10,0.59
2013-2-3,78.6,66.5,55.9,57.5,54.1,51.0,87,66,43,29.50,29.35,10,2,10,0.00
2013-2-4,82.8,70.6,60.4,64.4,57.2,54.4,85,65,43,29.65,29.50,11,2,11,0.00
2013-2-8,84.2,79.4,70.9,61.6,59.1,55.4,64,51,39,29.47,29.32,8,2,5,0.00
2013-2-9,97.3,80.1,72.9,65.5,61.7,44.1,65,55,33,29.44,29.18,6,2,6,0.00
2013-2-10,101.8,81.5,68.7,71.9,63.8,57.6,80,59,25,29.56,29.18,10,2,10,0.25
2013-2-11,73.2,69.9,67.8,65.6,63.3,61.9,84,80,75,29.53,29.44,7,1,7,0.04
2013-2-12,74.3,69.3,66.9,69.0,64.1,61.0,88,84,77,29.62,29.47,8,1,8,0.17
2013-2-13,76.8,69.5,63.7,65.4,60.4,54.0,90,74,51,29.68,29.53,10,2,10,0.00
2013-2-14,85.3,70.5,59.9,64.9,57.8,55.0,88,67,42,29.65,29.47,13,2,13,0.00
2013-2-15,79.9,70.5,64.6,67.0,60.8,57.1,86,72,54,29.62,29.47,9,2,9,0.00
2013-2-16,86.5,71.5,62.6,66.4,59.4,55.8,86,67,44,29.62,29.47,10,2,10,0.00
2013-2-17,88.0,72.6,65.7,67.6,59.0,53.6,88,65,34,29.62,29.47,13,2,13,0.00
2013-2-18,87.1,71.6,60.1,65.0,58.4,53.7,85,65,37,29.59,29.35,14,2,14,0.00
2013-2-19,90.9,75.4,64.8,67.6,61.6,56.1,87,65,34,29.44,29.24,12,2,12,0.00
2013-2-20,88.0,74.0,66.2,70.1,62.6,58.3,87,69,42,29.47,29.35,10,2,10,0.04
2013-2-21,83.8,72.6,67.5,70.8,64.9,60.9,90,78,53,29.50,29.38,15,2,15,0.50
2013-2-22,77.4,69.4,65.8,69.0,63.9,61.1,90,83,66,29.50,29.35,17,2,17,0.59
2013-2-23,73.9,69.6,66.4,71.7,66.9,62.2,95,91,86,29.44,29.09,17,4,17,3.43
2013-2-24,92.7,79.0,68.9,75.3,70.0,67.1,95,76,47,29.35,29.18,24,3,24,0.05
2013-2-25,90.9,78.7,69.6,73.5,69.0,66.1,91,74,53,29.47,29.29,10,3,10,0.00
2013-2-26,86.4,76.6,70.5,70.2,66.2,63.4,83,71,54,29.47,29.32,19,5,19,0.00
2013-2-27,91.8,77.6,66.9,69.3,63.7,59.9,86,65,41,29.47,29.18,8,2,8,0.00
2013-2-28,87.6,75.3,66.9,70.8,65.1,60.2,87,72,49,29.26,29.06,10,1,10,0.46
2013-3-1,67.5,65.2,62.8,64.1,60.8,58.7,89,86,80,29.50,29.24,10,2,10,1.94
2013-3-2,66.6,64.1,61.9,62.9,60.5,58.1,91,88,86,29.59,29.47,10,2,9,1.17
2013-3-3,78.3,70.0,64.8,67.0,61.9,58.1,93,77,56,29.56,29.47,14,2,14,0.21
2013-3-4,80.6,70.0,63.0,65.8,60.8,58.1,90,74,53,29.62,29.47,11,2,11,0.00
2013-3-5,82.6,70.8,63.1,65.8,60.3,57.8,89,71,49,29.62,29.47,13,2,13,0.00
2013-3-6,84.9,72.9,63.7,67.0,60.2,56.4,90,67,41,29.59,29.41,10,2,10,0.00
2013-3-7,88.5,73.5,62.1,67.2,59.3,55.1,88,64,38,29.59,29.35,10,2,10,0.00
2013-3-8,85.6,71.6,61.5,66.8,58.9,55.8,87,66,41,29.65,29.47,10,2,10,0.00
2013-3-9,88.5,74.9,68.0,67.6,60.8,57.1,82,64,38,29.59,29.41,10,2,10,0.00
2013-3-10,88.7,74.6,64.4,67.2,60.6,57.6,86,64,39,29.59,29.35,8,2,8,0.00
2013-3-11,85.1,72.8,64.2,68.1,61.3,58.4,86,69,48,29.59,29.47,13,2,13,0.00
2013-3-12,85.5,72.4,63.7,68.4,60.0,57.0,87,67,42,29.59,29.38,12,2,12,0.00
2013-3-13,88.5,73.2,61.0,66.3,58.5,55.3,86,63,35,29.47,29.20,9,2,9,0.00
2013-3-14,84.4,72.5,62.4,68.1,62.1,56.5,85,71,54,29.35,29.18,6,1,6,0.00
2013-3-15,74.1,71.7,69.8,69.6,65.3,62.8,87,80,76,29.47,29.35,7,0,7,0.04
2013-3-16,89.1,76.8,67.6,70.0,66.0,64.1,90,72,46,29.44,29.06,7,1,7,0.05
2013-3-17,81.3,72.1,64.4,64.8,54.0,43.6,81,56,32,29.50,29.15,8,2,8,0.00
2013-3-18,80.8,66.7,57.2,54.6,50.3,47.0,72,57,39,29.65,29.50,6,1,6,0.00
2013-3-19,83.3,66.1,55.0,58.6,52.2,48.7,84,63,36,29.74,29.59,8,1,8,0.00
2013-3-20,82.8,68.5,57.4,63.5,55.5,51.1,84,65,40,29.74,29.53,12,2,12,0.00
2013-3-21,86.9,71.3,57.9,64.4,56.2,51.7,85,62,35,29.62,29.29,10,1,10,0.00
2013-3-22,90.3,75.4,32.0,99.9,62.5,57.3,82,58,41,29.91,29.29,14,4,14,0.00
2013-3-23,91.2,79.0,70.3,67.4,61.6,55.5,72,56,38,29.44,29.26,16,2,16,0.00
2013-3-24,90.0,77.0,68.5,70.5,62.0,55.6,84,63,34,29.47,29.20,10,1,10,0.00
2013-3-25,89.1,73.8,61.3,63.8,56.2,51.5,83,58,29,29.53,29.35,7,1,7,0.00
2013-3-26,86.5,74.7,65.7,68.3,63.3,56.1,81,68,52,29.56,29.35,6,1,6,0.00
2013-3-27,91.2,77.3,65.7,71.3,63.5,59.6,88,66,39,29.56,29.32,9,1,9,0.00
2013-3-28,91.8,77.9,66.0,69.5,62.8,59.1,87,63,35,29.47,29.24,13,2,13,0.08
2013-3-29,80.1,68.9,60.3,66.0,55.2,50.2,84,63,40,29.56,29.32,7,1,7,0.04
2013-3-30,79.5,67.9,56.7,60.0,54.7,50.9,83,65,43,29.53,29.26,6,1,6,0.00
2013-3-31,76.5,67.1,61.5,60.1,56.4,51.5,85,70,46,29.44,29.24,5,0,5,0.00
2013-4-1,81.7,68.9,60.6,63.0,56.9,46.7,84,67,41,29.50,29.35,7,1,7,0.00
2013-4-2,82.8,69.0,58.6,61.6,52.9,45.7,85,61,31,29.47,29.29,8,1,8,0.00
2013-4-3,69.3,63.7,59.0,60.6,56.6,52.4,83,78,70,29.71,29.47,6,1,6,0.04
2013-4-4,67.8,63.7,60.4,63.9,58.9,55.3,90,85,78,29.85,29.71,9,1,9,0.29
2013-4-5,75.0,66.1,61.3,63.8,57.3,50.3,91,75,47,29.91,29.77,11,1,11,0.00
2013-4-6,75.4,64.0,56.7,61.6,56.1,51.9,89,77,51,29.85,29.65,6,1,6,0.00
2013-4-7,77.9,64.3,60.1,59.3,57.5,43.7,90,80,48,29.74,29.56,6,0,6,0.00
2013-4-8,79.0,66.3,59.5,62.8,57.2,54.1,89,74,45,29.74,29.62,7,1,7,0.00
2013-4-9,77.2,64.7,59.2,63.3,58.6,55.2,89,81,57,29.83,29.65,6,1,6,0.08
2013-4-10,77.0,65.8,58.6,63.7,57.0,53.0,91,75,49,29.74,29.56,7,1,7,0.00
2013-4-11,80.1,66.2,56.1,62.1,53.1,48.1,89,66,36,29.71,29.56,5,1,5,0.00
2013-4-12,79.2,66.6,56.5,63.0,55.1,50.6,88,68,45,29.80,29.59,12,2,12,0.00
2013-4-13,78.1,66.7,55.9,62.4,55.5,49.9,86,69,47,29.68,29.38,10,1,10,0.00
2013-4-14,83.3,68.9,59.2,63.7,55.1,49.1,88,65,32,29.44,29.24,6,1,6,0.00
2013-4-15,85.6,68.5,56.8,64.2,54.4,50.5,85,64,32,29.35,29.12,10,1,10,0.00
2013-4-16,70.7,66.0,63.7,62.6,58.3,54.0,86,76,67,29.47,29.26,7,1,7,0.21
2013-4-17,75.9,65.9,58.6,60.8,56.6,53.8,89,73,53,29.50,29.35,6,1,6,0.00
2013-4-18,76.5,65.7,59.0,62.9,55.8,51.8,89,72,45,29.44,29.29,7,1,7,0.00
2013-4-19,71.6,62.0,54.3,54.9,48.1,41.4,87,63,39,29.44,29.35,14,1,14,0.00
2013-4-20,60.6,58.3,53.4,56.4,50.5,40.3,86,76,58,29.47,29.32,6,1,6,1.29
2013-4-21,69.8,59.9,50.5,55.4,50.0,46.1,89,71,47,29.50,29.32,8,1,8,0.00
2013-4-22,72.7,61.9,55.0,59.4,52.3,49.0,90,73,44,29.35,29.15,9,1,9,0.00
2013-4-23,74.8,61.0,48.7,56.5,47.9,43.7,87,65,40,29.47,29.29,10,1,10,0.00
2013-4-24,72.7,59.7,48.7,55.0,46.9,42.8,85,65,41,29.62,29.41,6,1,6,0.00
2013-4-25,72.0,58.3,48.6,54.0,45.7,42.5,85,65,40,29.71,29.53,6,1,6,0.00
2013-4-26,75.7,59.6,46.2,55.9,46.2,40.2,85,64,40,29.74,29.53,6,1,6,0.00
2013-4-27,76.9,61.3,48.9,56.0,48.2,42.9,84,64,39,29.71,29.47,2,0,0,0.00
2013-4-28,79.7,63.3,50.4,59.4,49.6,44.4,84,64,35,29.62,29.41,2,0,0,0.00
2013-4-29,80.6,63.5,50.4,55.9,49.7,43.8,82,63,36,29.71,29.54,3,0,0,0.00
2013-4-30,75.0,66.0,57.6,64.4,58.7,51.1,89,78,62,29.76,29.59,2,0,0,0.00
2013-5-1,82.4,68.4,59.4,64.5,57.1,52.7,91,70,37,29.62,29.35,6,1,0,0.00
2013-5-2,67.9,62.0,54.9,58.6,47.3,42.0,78,60,40,29.83,29.49,3,1,0,0.00
2013-5-3,71.1,57.5,46.9,52.3,46.4,40.8,84,68,45,29.85,29.57,3,0,0,0.00
2013-5-4,73.0,62.2,49.5,57.2,50.1,43.9,84,66,43,29.68,29.47,8,1,8,0.00
2013-5-5,67.8,59.6,51.8,51.4,46.3,43.4,78,62,48,29.77,29.59,7,1,7,0.00
2013-5-6,67.3,55.0,44.6,51.7,44.8,38.5,84,69,51,29.85,29.71,8,1,8,0.00
2013-5-7,68.5,59.7,52.2,57.3,52.0,46.2,85,76,63,29.88,29.77,5,1,5,0.00
2013-5-8,54.3,53.6,53.1,50.7,50.0,49.3,90,88,84,29.94,29.88,2,0,2,0.00
2013-5-11,68.7,67.2,62.8,60.1,58.7,57.7,86,74,70,29.91,29.77,5,1,5,0.00
2013-5-12,60.4,57.2,54.3,56.8,53.8,51.3,91,88,82,29.85,29.80,4,0,3,0.00
2013-5-13,69.8,60.6,52.3,59.7,53.3,49.1,91,78,56,29.68,29.38,8,0,8,0.00
2013-5-14,59.2,58.8,58.5,55.3,55.0,54.6,88,87,86,29.41,29.35,4,0,4,0.00
2013-5-15,67.8,54.9,45.0,51.8,45.7,41.0,89,73,44,29.50,29.29,6,1,11,0.17
2013-5-16,68.4,57.6,50.2,51.7,44.8,41.5,83,64,42,29.41,29.24,7,1,12,0.00
2013-5-17,66.7,54.8,45.9,47.3,39.5,34.4,81,59,35,29.47,29.29,7,1,15,0.00
2013-5-18,67.1,56.6,42.4,47.0,37.5,33.7,76,50,36,29.53,29.35,10,2,10,0.00
2013-5-19,64.4,51.2,40.6,45.5,35.9,33.3,78,58,37,29.59,29.44,12,2,12,0.00
2013-5-20,65.7,51.0,39.6,45.4,39.0,32.3,79,65,43,29.65,29.47,7,1,7,0.00
2013-5-21,68.7,54.3,42.6,51.2,41.8,36.9,84,65,39,29.59,29.38,13,1,13,0.00
2013-5-22,58.1,52.5,46.2,51.4,45.8,40.1,85,78,69,29.50,29.29,5,0,5,0.63
2013-5-23,60.8,55.2,52.0,57.7,51.9,48.3,91,89,85,29.50,29.29,6,1,6,1.09
2013-5-24,63.1,56.9,54.0,55.8,52.3,49.9,92,85,70,29.62,29.47,8,2,9,0.12
2013-5-25,65.7,56.5,50.5,54.8,50.5,45.7,92,81,58,29.77,29.65,6,1,6,0.00
2013-5-26,65.5,52.5,43.3,52.7,45.5,39.4,90,78,54,29.85,29.68,5,0,5,0.00
2013-5-27,55.9,49.7,44.4,53.6,46.4,40.7,93,88,83,29.97,29.80,6,1,6,0.04
2013-5-28,64.2,57.5,52.9,60.2,54.4,50.9,96,90,76,30.03,29.88,7,1,7,0.04
2013-5-29,67.8,57.7,52.7,59.5,53.8,49.7,95,87,71,29.97,29.83,5,1,5,0.00
2013-5-30,68.5,56.3,48.0,58.8,51.0,44.9,93,83,63,29.94,29.77,7,0,7,0.00
2013-5-31,71.4,56.4,46.6,59.1,50.0,43.2,93,80,57,29.91,29.71,5,0,5,0.00
2013-6-1,67.1,58.2,50.9,59.7,51.8,47.5,94,80,62,29.77,29.41,13,2,13,0.04
2013-6-2,59.9,56.9,53.2,56.9,52.6,47.6,92,86,78,29.44,29.18,13,2,13,0.72
2013-6-3,62.6,53.1,45.1,48.6,43.6,39.9,88,71,50,29.68,29.50,6,1,6,0.00
2013-6-4,64.4,51.2,41.4,52.0,44.3,36.0,87,78,63,29.88,29.71,7,1,7,0.00
2013-6-5,63.9,52.7,46.4,56.7,48.1,42.4,93,85,70,29.85,29.68,4,0,4,0.00
2013-6-6,62.6,55.8,50.4,58.5,52.8,47.2,93,90,84,29.80,29.62,4,0,4,0.00
2013-6-7,69.8,61.5,55.6,59.8,56.5,50.5,95,84,68,29.74,29.53,15,2,15,0.00
2013-6-8,61.5,55.0,48.2,55.7,50.6,44.4,94,85,74,29.97,29.77,6,0,6,0.00
2013-6-9,64.6,55.1,49.5,55.5,50.2,46.9,93,84,68,29.91,29.68,6,1,6,0.00
2013-6-10,65.1,54.6,48.7,59.3,50.8,45.4,92,87,73,29.71,29.53,6,0,6,0.04
2013-6-11,66.2,54.5,46.8,56.4,49.3,43.7,94,83,66,29.71,29.50,6,1,6,0.00
2013-6-12,58.3,52.9,49.3,57.4,51.1,46.2,97,94,88,29.59,29.29,6,0,6,0.59
2013-6-13,63.9,55.7,50.2,57.6,50.5,47.7,97,84,64,29.32,29.18,13,2,13,0.00
2013-6-14,62.8,55.7,49.5,52.0,46.5,41.9,91,72,56,29.26,29.12,17,4,17,0.00
2013-6-15,64.9,57.4,50.2,49.8,46.0,42.0,79,67,48,29.38,29.24,8,1,8,0.00
2013-6-16,60.6,51.5,43.5,46.6,41.9,37.4,83,70,52,29.53,29.35,9,1,9,0.00
2013-6-17,60.8,49.1,38.3,48.0,41.4,32.7,86,75,61,29.41,29.26,6,1,6,0.00
2013-6-18,60.6,50.3,40.6,48.1,42.4,36.2,88,75,52,29.53,29.35,5,1,5,0.00
2013-6-19,59.9,52.6,47.1,48.3,43.9,39.8,86,73,54,29.74,29.53,12,1,12,0.00
2013-6-20,58.6,49.2,42.1,47.1,42.4,37.3,86,78,64,29.80,29.62,6,1,6,0.00
2013-6-21,59.4,49.4,43.5,49.8,43.8,39.9,90,81,66,29.71,29.59,7,0,7,0.00
2013-6-22,59.2,49.3,41.5,49.6,43.0,37.8,89,79,64,29.83,29.71,7,1,7,0.00
2013-6-23,59.0,53.9,50.9,52.8,49.3,45.6,89,84,75,29.88,29.74,5,1,5,0.21
2013-6-24,60.6,54.0,46.9,51.7,47.6,40.5,91,80,62,29.74,29.47,6,1,6,0.00
2013-6-25,58.8,49.1,42.1,51.1,44.1,37.9,90,83,71,29.56,29.47,6,0,6,0.00
2013-6-26,63.0,56.5,50.4,59.0,52.7,47.8,95,87,76,29.65,29.53,8,2,9,0.08
2013-6-27,59.5,56.5,54.3,58.4,54.8,51.7,96,94,91,29.71,29.59,7,1,7,0.21
2013-6-28,60.3,56.7,55.2,58.2,55.1,53.7,96,95,92,29.74,29.65,10,1,10,0.29
2013-6-29,61.0,57.0,54.5,57.5,54.8,53.1,96,92,85,29.74,29.62,5,0,5,0.59
2013-6-30,60.4,56.6,53.6,55.3,52.9,50.9,93,88,80,29.77,29.65,5,0,5,0.00
2013-7-1,63.0,55.8,50.7,55.5,50.9,47.3,90,84,73,29.74,29.65,6,1,6,0.00
2013-7-2,62.2,53.3,47.8,53.1,48.7,45.3,92,85,71,29.80,29.62,6,1,6,0.00
2013-7-3,62.8,52.1,45.1,53.9,46.9,42.1,92,83,64,29.80,29.65,5,1,5,0.04
2013-7-4,68.2,53.9,41.7,53.5,46.4,38.4,95,77,55,29.68,29.38,15,2,15,0.00
2013-7-5,66.6,55.8,48.4,52.3,43.7,33.9,93,67,41,29.56,29.35,13,2,13,0.00
2013-7-6,61.0,47.5,37.6,42.4,35.5,31.0,83,65,44,29.74,29.59,13,2,13,0.00
2013-7-7,61.3,46.5,36.5,44.3,35.7,30.6,85,68,40,29.94,29.77,6,1,6,0.00
2013-7-8,61.0,46.2,36.0,44.4,36.6,30.4,85,70,44,30.06,29.94,6,1,6,0.00
2013-7-9,58.1,47.0,38.8,50.3,42.1,32.9,90,83,68,30.15,30.00,6,0,6,0.04
2013-7-10,55.4,49.6,45.3,50.3,46.4,42.6,94,89,82,30.09,29.94,5,0,5,0.20
2013-7-11,61.5,52.1,46.9,53.4,47.7,44.4,94,85,68,30.12,29.94,6,1,6,0.00
2013-7-12,62.6,52.7,46.8,55.1,48.7,44.6,94,87,71,30.03,29.83,7,0,7,0.00
2013-7-13,64.4,54.0,48.0,54.8,49.2,44.6,94,84,67,29.91,29.80,6,1,6,0.00
2013-7-14,64.9,53.6,47.5,55.3,48.8,44.7,93,84,65,29.91,29.77,6,1,6,0.00
2013-7-15,64.6,56.5,51.6,58.8,52.5,48.7,96,87,70,29.80,29.65,6,0,6,0.00
2013-7-16,67.6,59.0,53.4,59.7,54.2,51.3,96,85,65,29.80,29.68,8,1,8,0.00
2013-7-17,70.0,58.7,52.3,60.4,53.0,49.2,95,82,61,29.80,29.62,6,0,6,0.00
2013-7-18,71.1,57.7,48.7,59.0,52.2,45.9,94,83,56,29.77,29.59,7,0,7,0.00
2013-7-19,66.9,57.9,51.6,60.5,53.3,49.7,95,85,59,29.56,29.35,15,2,15,0.12
2013-7-20,67.6,59.9,55.6,56.5,48.6,35.8,92,69,41,29.41,29.18,17,4,17,0.00
2013-7-21,60.6,51.1,41.7,40.1,33.7,31.1,75,53,36,29.59,29.35,14,3,14,0.00
2013-7-22,62.2,47.8,37.6,42.7,33.7,30.4,80,60,37,29.68,29.53,15,2,15,0.00
2013-7-23,62.2,48.9,37.4,44.0,35.5,30.5,81,61,41,29.71,29.56,12,2,12,0.00
2013-7-24,61.9,50.7,41.7,45.5,39.5,34.0,82,67,49,29.91,29.74,8,1,8,0.00
2013-7-25,61.9,48.2,37.4,45.9,38.9,31.5,86,71,50,29.97,29.83,6,1,6,0.00
2013-7-26,65.7,49.6,39.2,48.5,39.9,34.3,86,71,43,29.88,29.71,11,1,11,0.00
2013-7-27,63.9,49.7,37.4,47.4,39.6,31.7,85,69,48,30.00,29.83,6,1,6,0.00
2013-7-28,65.1,52.4,44.2,53.2,45.0,37.8,87,77,56,29.94,29.77,5,0,5,0.00
2013-7-29,69.4,54.3,43.0,53.1,44.2,38.0,89,71,44,29.85,29.62,11,1,11,0.00
2013-7-30,67.6,56.0,46.0,52.4,46.6,41.0,86,72,50,29.68,29.53,7,1,7,0.00
2013-7-31,61.3,56.0,50.4,55.5,50.8,45.9,88,83,76,29.77,29.62,6,1,6,0.00
2013-8-1,64.9,53.2,45.5,51.4,45.2,42.4,92,76,50,29.77,29.59,6,1,6,0.04
2013-8-2,66.4,52.6,43.7,54.2,42.7,38.8,89,71,42,29.68,29.41,12,1,12,0.00
2013-8-3,66.4,53.0,42.6,48.4,39.0,35.9,85,62,36,29.59,29.35,10,2,10,0.00
2013-8-4,66.4,53.8,43.2,44.2,37.6,32.2,76,56,35,29.56,29.38,17,3,17,0.00
2013-8-5,65.8,52.4,40.5,46.3,37.5,33.0,79,59,39,29.62,29.44,11,2,11,0.00
2013-8-6,71.1,55.6,40.6,44.7,37.4,33.7,81,54,32,29.56,29.26,23,4,23,0.00
2013-8-7,68.2,56.8,49.8,49.9,44.5,37.3,83,64,45,29.47,29.20,7,1,7,0.29
2013-8-8,57.6,53.2,48.0,48.3,43.3,39.0,88,70,53,29.50,29.18,11,2,11,0.04
2013-8-9,63.1,52.5,40.8,47.9,40.9,35.0,86,66,46,29.65,29.41,8,1,8,0.00
2013-8-10,72.5,58.2,46.2,49.9,42.3,38.6,78,58,35,29.56,29.35,9,2,9,0.00
2013-8-11,71.4,55.3,40.6,48.9,42.4,33.7,82,64,39,29.62,29.35,8,1,8,0.00
2013-8-12,76.3,59.6,46.4,55.0,42.4,37.5,85,57,29,29.38,29.06,24,4,24,0.00
2013-8-13,70.2,54.1,39.7,42.7,33.5,28.9,72,48,28,29.53,29.35,15,2,15,0.00
2013-8-14,72.0,55.9,45.3,46.5,36.0,31.6,74,51,26,29.53,29.24,15,2,15,0.00
2013-8-15,65.8,55.9,46.6,36.5,31.3,26.6,52,40,27,29.71,29.32,13,3,13,0.00
2013-8-16,68.2,51.9,37.0,42.4,33.5,28.5,74,53,28,29.80,29.47,9,1,9,0.00
2013-8-17,71.8,58.1,45.0,52.3,43.9,35.9,82,61,43,29.44,29.18,15,3,15,0.00
2013-8-18,71.6,56.3,42.1,45.6,35.4,31.3,71,48,29,29.59,29.35,12,2,12,0.00
2013-8-19,71.4,60.4,47.1,39.1,33.0,28.9,59,37,27,29.44,29.12,21,5,21,0.00
2013-8-20,64.2,52.9,43.2,34.3,27.2,21.0,50,38,28,29.53,29.35,15,4,15,0.00
2013-8-21,64.0,49.8,36.3,37.4,29.2,22.6,65,46,33,29.59,29.41,9,2,9,0.00
2013-8-22,63.3,50.7,37.4,41.4,32.2,27.8,73,51,35,29.56,29.32,12,3,12,0.00
2013-8-23,67.5,58.2,48.0,41.4,36.5,33.1,59,45,34,29.47,29.29,18,6,18,0.00
2013-8-24,73.8,59.8,46.8,50.1,41.4,36.8,74,53,33,29.71,29.47,8,2,8,0.00
2013-8-25,76.3,59.0,43.7,52.4,41.7,36.6,81,56,31,29.83,29.56,12,2,12,0.00
2013-8-26,71.2,56.6,42.3,48.6,39.9,34.4,77,56,34,29.80,29.56,6,1,6,0.00
2013-8-27,72.5,58.5,46.0,50.4,41.8,38.9,80,57,34,29.74,29.47,8,1,8,0.00
2013-8-28,74.3,58.8,43.7,52.2,41.1,36.5,82,56,31,29.71,29.53,9,2,9,0.00
2013-8-29,73.6,60.2,46.2,54.3,44.4,38.7,80,59,35,29.80,29.50,14,2,14,0.00
2013-8-30,83.5,67.4,55.2,58.5,47.9,38.6,83,54,27,29.56,29.29,15,3,15,0.00
2013-8-31,77.4,62.7,51.1,50.7,41.9,38.2,70,49,28,29.71,29.50,9,1,9,0.00
2013-9-1,76.3,61.2,46.9,52.1,43.7,38.9,76,55,33,29.88,29.71,13,2,13,0.00
2013-9-2,75.0,61.6,48.6,56.6,45.0,41.2,82,58,33,29.97,29.83,6,2,6,0.00
2013-9-3,75.6,61.6,47.8,54.9,47.5,40.6,82,62,39,30.06,29.88,9,2,9,0.00
2013-9-4,76.6,62.7,50.2,56.0,47.3,42.5,85,61,33,30.06,29.77,8,2,9,0.00
2013-9-5,83.3,65.1,48.2,56.4,45.6,41.4,82,54,28,29.91,29.65,9,1,9,0.00
2013-9-6,83.7,67.6,52.5,55.5,48.1,42.5,74,52,31,29.83,29.59,5,2,5,0.00
2013-9-7,87.1,70.1,56.5,59.2,46.6,36.0,80,50,20,29.74,29.47,12,2,12,0.00
2013-9-8,75.0,66.4,60.8,58.9,53.2,42.5,73,63,51,29.74,29.59,8,2,9,0.00
2013-9-9,81.9,70.2,61.9,63.3,55.4,51.8,81,62,41,29.68,29.35,7,1,7,0.00
2013-9-10,88.5,75.6,59.7,52.3,42.5,33.3,75,34,19,29.32,28.94,23,7,23,0.00
2013-9-11,81.5,68.0,54.5,42.3,34.6,27.3,50,31,18,29.41,29.18,12,3,12,0.00
2013-9-12,60.8,56.6,53.1,34.0,33.2,32.0,48,41,35,29.44,29.41,2,0,2,0.00
2013-9-13,68.7,59.4,53.8,43.9,40.4,34.1,55,50,36,29.68,29.41,6,2,10,0.00
2013-9-14,78.6,66.4,57.6,57.0,48.9,42.8,83,55,33,29.50,29.15,13,3,13,0.00
2013-9-15,75.2,61.8,52.2,56.3,48.2,44.1,82,62,40,29.59,29.38,10,2,10,0.00
2013-9-16,63.3,57.6,53.2,56.9,50.7,45.9,88,78,70,29.53,29.24,8,2,8,0.17
2013-9-27,62.2,62.1,62.1,37.0,36.8,36.8,39,39,39,29.44,29.44,4,4,4,0.00
2013-9-28,90.1,72.6,49.3,53.9,33.0,18.4,71,29,10,29.44,29.06,24,5,24,0.00
2013-9-29,84.0,68.4,53.4,43.3,36.4,27.4,50,33,20,29.53,29.29,11,3,11,0.00
2013-9-30,89.8,70.1,49.8,53.8,40.5,31.8,73,41,15,29.56,29.24,15,2,15,0.00
2013-10-1,93.2,69.9,55.2,53.0,45.5,36.6,56,43,24,29.32,29.00,31,6,31,0.00
2013-10-2,82.2,66.9,49.5,46.1,36.9,29.8,63,36,21,29.50,29.18,17,3,17,0.00
2013-10-3,75.0,60.7,52.0,47.2,39.9,34.3,72,48,29,29.59,29.18,14,3,14,0.21
2013-10-4,75.9,60.2,43.7,48.9,40.5,36.6,82,53,28,29.71,29.50,10,2,10,0.00
2013-10-5,87.4,67.7,47.3,55.3,41.4,31.8,80,46,16,29.62,29.18,12,2,12,0.00
2013-10-6,94.6,72.5,50.7,53.1,37.0,25.5,65,33,12,29.38,28.97,13,3,13,0.00
2013-10-7,85.1,67.2,54.3,47.3,40.6,32.9,54,39,22,29.38,29.09,10,3,10,0.00
2013-10-8,82.2,66.6,53.8,52.7,43.1,34.8,70,46,21,29.56,29.32,10,2,10,0.00
2013-10-9,88.3,68.2,48.9,53.9,41.7,33.3,75,44,19,29.65,29.29,14,2,14,0.00
2013-10-10,98.1,75.5,54.0,45.6,35.8,24.4,54,29,9,29.41,28.97,23,5,23,0.00
2013-10-11,83.1,72.3,63.5,56.6,47.7,32.1,64,43,21,29.44,29.03,10,3,10,0.00
2013-10-12,93.0,72.8,53.8,57.2,46.0,34.1,77,45,17,29.50,29.06,12,2,12,0.00
2013-10-13,98.1,81.8,62.2,54.9,43.0,24.4,69,32,8,29.15,28.73,28,7,28,0.04
2013-10-14,78.8,66.2,56.7,51.8,40.0,31.9,59,40,20,29.59,29.09,11,3,11,0.04
2013-10-15,80.4,63.1,44.8,43.1,34.8,27.8,67,39,20,29.71,29.44,9,2,9,0.00
2013-10-16,88.5,68.1,46.4,44.7,32.4,23.7,56,31,13,29.62,29.24,15,3,15,0.00
2013-10-17,95.4,75.0,54.5,47.9,35.7,23.3,49,27,9,29.38,28.97,28,6,28,0.00
2013-10-18,73.8,65.2,57.6,42.9,33.4,22.0,49,31,23,29.80,29.44,10,3,10,0.00
2013-10-19,83.8,65.6,48.7,53.6,43.5,38.2,70,49,22,29.85,29.56,11,3,11,0.00
2013-10-20,93.4,75.3,60.1,59.7,49.9,38.5,76,47,19,29.71,29.29,9,2,9,0.00
2013-10-21,99.0,79.4,59.5,60.5,48.1,39.5,73,40,16,29.50,29.18,13,2,13,0.00
2013-10-22,96.3,78.7,65.1,61.8,54.8,47.7,63,45,28,29.41,29.18,10,2,10,0.00
2013-10-23,99.1,83.4,71.8,57.6,47.7,28.0,59,33,13,29.24,28.94,25,6,25,0.00
2013-10-24,87.3,73.3,61.3,45.2,34.6,19.8,47,27,12,29.56,29.24,20,4,20,0.00
2013-10-25,81.7,65.2,47.7,41.7,30.9,21.2,46,30,13,29.71,29.41,10,2,10,0.00
2013-10-26,81.0,65.5,50.0,46.9,40.4,34.7,67,44,20,29.62,29.41,10,2,10,0.00
2013-10-27,84.6,67.9,52.7,55.6,46.0,38.0,74,49,23,29.71,29.41,14,2,14,0.00
2013-10-28,85.8,70.2,56.7,58.0,49.4,42.5,74,51,23,29.62,29.24,9,2,9,0.00
2013-10-29,93.2,67.8,56.3,59.9,51.6,44.5,76,60,21,29.44,29.00,20,3,20,0.84
2013-10-30,77.9,65.8,57.2,54.4,49.0,43.2,80,57,32,29.56,29.44,9,2,9,0.04
2013-10-31,85.3,67.5,52.2,56.4,47.7,41.8,82,54,26,29.68,29.41,12,2,12,0.00
2013-11-1,85.6,70.2,58.5,58.3,52.2,48.9,75,55,31,29.71,29.44,10,2,10,0.00
2013-11-2,96.3,75.6,56.1,62.8,46.6,33.1,81,45,14,29.59,29.18,16,2,16,0.00
2013-11-3,97.0,77.0,60.1,53.9,42.8,24.4,59,34,10,29.50,29.03,24,4,24,0.00
2013-11-4,79.9,66.8,58.8,45.4,38.6,31.8,56,37,20,29.77,29.47,12,2,12,0.00
2013-11-5,69.8,63.0,56.7,46.0,42.2,38.0,62,47,39,29.83,29.71,7,2,7,0.00
2013-11-6,85.5,66.4,48.4,53.5,45.5,39.9,76,51,23,29.77,29.41,15,3,15,0.00
2013-11-7,96.6,74.9,53.8,58.2,47.8,42.5,75,45,17,29.56,29.18,13,2,13,0.00
2013-11-8,103.5,82.2,59.9,58.3,45.6,35.9,63,34,12,29.35,28.97,14,3,14,0.00
2013-11-9,99.7,81.1,68.0,57.4,50.3,42.8,57,37,17,29.35,28.94,21,4,21,0.00
2013-11-10,77.0,66.2,61.5,54.9,51.2,45.2,78,59,35,29.50,29.35,8,2,9,0.29
2013-11-11,68.5,63.7,60.4,64.2,57.8,53.5,87,81,76,29.50,29.38,10,2,10,0.88
2013-11-12,77.2,66.5,61.7,64.8,59.5,56.2,90,79,58,29.41,29.26,13,2,13,0.38
2013-11-13,89.8,74.7,62.1,60.9,49.1,33.3,87,50,15,29.44,29.18,17,3,17,0.00
2013-11-14,91.8,72.5,55.2,54.4,45.1,28.8,74,44,13,29.44,29.15,13,3,13,0.00
2013-11-15,84.6,70.8,62.4,57.3,52.2,46.5,75,54,32,29.44,29.24,12,3,12,0.00
2013-11-16,73.2,65.9,60.1,57.9,53.3,48.1,79,65,46,29.47,29.32,8,2,9,0.41
2013-11-17,63.3,61.2,59.4,56.7,54.5,52.3,85,79,72,29.47,29.38,7,1,7,1.21
2013-11-18,67.1,60.6,57.7,62.6,56.5,53.6,89,86,78,29.41,29.24,7,2,7,0.83
2013-11-19,78.4,67.6,61.3,64.6,58.9,56.1,91,75,51,29.35,29.18,8,1,8,0.00
2013-11-20,87.6,71.7,58.3,64.3,58.0,54.7,90,65,38,29.38,29.18,12,2,12,0.00
2013-11-21,89.6,74.2,61.3,64.9,59.8,56.1,88,63,38,29.35,29.12,15,3,15,0.00
2013-11-22,78.3,69.7,66.4,65.0,61.3,58.4,87,75,60,29.29,29.09,18,3,18,0.37
2013-11-23,71.8,66.6,62.1,67.8,61.4,56.8,92,84,70,29.15,29.00,7,1,7,0.13
2013-11-24,86.0,70.2,58.6,63.4,54.2,45.9,90,62,29,29.20,28.97,13,2,13,0.00
2013-11-25,84.9,67.4,59.5,60.0,53.7,47.9,82,63,33,29.41,29.12,8,2,8,0.08
2013-11-26,80.2,65.5,53.8,54.1,48.2,45.0,81,56,33,29.50,29.35,9,2,9,0.00
2013-11-27,86.5,69.2,52.3,56.0,48.7,42.1,81,53,23,29.59,29.29,9,2,9,0.00
2013-11-28,97.7,76.8,56.5,60.8,49.6,41.1,79,46,17,29.41,28.94,12,2,12,0.00
2013-11-29,74.7,68.8,61.2,64.2,56.8,48.7,80,66,44,29.35,28.94,8,2,9,0.41
2013-11-30,76.5,66.3,58.8,60.2,52.8,49.2,84,63,48,29.68,29.38,8,2,8,0.41
2013-12-1,75.7,64.5,55.2,58.0,51.8,48.1,83,65,42,29.74,29.59,13,2,13,0.00
2013-12-23,99.9,90.2,79.0,60.7,52.9,47.6,53,29,19,29.20,28.97,14,4,14,0.00
2013-12-24,78.4,71.1,68.2,62.7,60.4,58.0,77,69,57,29.56,29.24,7,1,7,0.00
2013-12-25,70.7,68.2,66.9,65.5,61.8,59.5,90,80,76,29.56,29.35,9,1,9,0.33
2013-12-26,88.5,75.0,67.6,67.7,62.4,55.3,89,68,34,29.35,29.12,9,2,9,0.04
2013-12-27,90.0,74.3,64.2,64.9,59.0,56.1,82,61,35,29.35,29.12,12,2,12,0.00
2013-12-28,90.0,75.7,65.7,63.8,60.9,56.9,78,62,39,29.35,29.00,10,2,10,0.00
2013-12-29,86.4,73.9,66.2,68.3,55.4,45.7,84,56,29,29.44,29.00,12,3,12,0.00
2013-12-30,87.1,73.0,62.6,57.5,52.1,49.6,71,50,30,29.44,29.18,12,3,12,0.00
2013-12-31,97.2,75.3,58.8,60.5,53.5,43.6,75,51,17,29.44,29.09,13,4,13,0.00
2014-1-1,94.6,79.1,67.3,64.8,59.8,53.1,78,55,28,29.44,29.12,9,2,9,0.00
2014-1-2,103.1,85.4,71.8,69.8,55.4,41.9,77,43,15,29.15,28.88,14,2,14,0.00